Regional Weather Roundup
Issued by NWS

Home | Current Version | Previous Version | Text Only | Print | Product List | Glossary Off
Versions: 1 2 3 4 5 6 7 8 9 10 11 12 13 14 15 16 17 18 19 20 21 22 23 24 25 26 27 28 29 30 31 32 33 34 35 36 37 38 39 40 41 42 43 44 45 46 47 48 49 50

000
ASUS43 KMKX 300911
RWRWI

WISCONSIN REGIONAL WEATHER ROUNDUP
NATIONAL WEATHER SERVICE MILWAUKEE/SULLIVAN WI
400 AM CDT MON MAY 30 2016

NOTE: "FAIR" INDICATES FEW OR NO CLOUDS BELOW 12,000 FEET WITH NO
SIGNIFICANT WEATHER AND/OR OBSTRUCTIONS TO VISIBILITY.

WIZ001-002-006>008-014>016-023>028-301000-
NORTHWEST WISCONSIN

CITY           SKY/WX    TMP DP  RH WIND       PRES   REMARKS
SUPERIOR ARPT  CLEAR     49  48  99 SW5       29.95S
ASHLAND        CLEAR     51  49  92 SW3       29.95S
HAYWARD        FOG       46  45  96 N3        29.98R VSB 3/4
SIREN          CLEAR     48  47  93 CALM      29.98S
CUMBERLAND     FOG       52  50  93 CALM      29.99S VSB 1/2
RICE LAKE      PTCLDY    54  53  95 CALM      30.00S FOG
CHETEK         FOG       53  53 100 CALM      29.99S VSB 1/2
LADYSMITH      CLEAR     53  51  95 CALM      30.00S
EAU CLAIRE     CLEAR     56  55  97 W5        29.98S
MENOMONIE      CLEAR     55  52  90 CALM      30.00R
NEW RICHMOND   CLEAR     55  55 100 CALM      29.99S FOG
OSCEOLA        FOG       52  52 100 CALM      30.01S VSB 3/4
$$

WIZ003>005-009-010-017-018-301000-
NORTH CENTRAL WISCONSIN

CITY           SKY/WX    TMP DP  RH WIND       PRES   REMARKS
MANITOWISH WTR NOT AVBL
ARBOR VITAE    CLEAR     52  51  96 CALM      29.96S
WOODRUFF       CLEAR     52  51  96 CALM      29.96S
RHINELANDER    FOG       51  50  96 W6        29.98S VSB 3/4
EAGLE RIVER    FOG       49  49 100 CALM      29.95F VSB 1
LAND O LAKES   CLEAR     49  49 100 CALM      29.96S FOG
PHILLIPS       CLEAR     49  49 100 CALM      29.98R
TOMAHAWK       FOG       46  46  97 CALM      29.98S VSB 1/2
MEDFORD        PTCLDY    56  56 100 W3        29.99S
MERRILL        CLEAR    N/A N/A N/A CALM      29.98F FOG
$$

WIZ029-030-035-036-043>047-301000-
CENTRAL WISCONSIN

CITY           SKY/WX    TMP DP  RH WIND       PRES   REMARKS
WAUSAU         CLEAR     57  54  89 CALM      29.96S
MOSINEE        CLEAR     55  55 100 W5        29.99S
MARSHFIELD     CLEAR     55  52  89 W3        29.98S
STEVENS POINT  FOG       52  52 100 CALM      29.99R VSB 1/2
WAUPACA        PTCLDY    58  58  99 CALM      29.97S
WAUTOMA        CLEAR    N/A N/A N/A CALM      29.98
WISC RAPIDS    PTCLDY    57  55  93 CALM      29.99S FOG
CAMP DOUGLAS   FOG       54  54 100 CALM      29.98S VSB 3/4
$$

WIZ011>013-019>022-031-037>040-048>050-301000-
NORTHEAST WISCONSIN

CITY           SKY/WX    TMP DP  RH WIND       PRES   REMARKS
ANTIGO         CLEAR     51  51 100 CALM      29.98S
SHAWANO        CLEAR     58  55  89 W3        29.96S
OCONTO         CLEAR    N/A N/A N/A CALM      29.94S
STURGEON BAY   NOT AVBL
GREEN BAY      MOCLDY    61  57  87 W3        29.96R
MANITOWOC      CLEAR     62  58  86 W7        29.96S
APPLETON       CLEAR     59  55  88 W8        29.96S
CLINTONVILLE   CLEAR     59  55  88 W6        29.97R
OSHKOSH        CLEAR     62  57  83 W5        29.96S
$$

WIZ032>034-041-042-053>061-301000-
SOUTHWEST WISCONSIN

CITY           SKY/WX    TMP DP  RH WIND       PRES   REMARKS
LA CROSSE      CLEAR     61  58  90 CALM      29.99S
SPARTA         CLEAR     52  52 100 CALM      30.01R
VIROQUA        CLEAR     58  57  96 CALM      30.01S
BOSCOBEL       FOG       56  55  97 CALM      30.00R VSB 1
PRAIRIE DU CHI CLEAR     58  55  92 CALM      30.00R
PLATTEVILLE    PTCLDY    63  59  88 S3        30.00S
$$

WIZ056-057-062-063-064-067-068-301000-
SOUTH CENTRAL WISCONSIN

CITY           SKY/WX    TMP DP  RH WIND       PRES   REMARKS
REEDSBURG      CLEAR     57  57 100 CALM      29.99S
BARABOO/DELLS  CLEAR     57  55  91 CALM      29.99S
LONE ROCK      FOG       57  56  96 CALM      30.00S VSB 1/4
MINERAL POINT  CLEAR     63  59  88 CALM      30.01R
MADISON        FOG       58  57  97 CALM      29.99S VSB 1
MIDDLETON      CLEAR     60  59  99 CALM      30.00S
WATERTOWN      CLEAR     55  55 100 CALM      29.99R
MONROE         CLEAR     64  55  72 W8        30.00S
JANESVILLE     CLEAR     59  57  94 S5        30.00S
$$

WIZ051-052-058>065-066-070>072-301000-
SOUTHEAST WISCONSIN

CITY           SKY/WX    TMP DP  RH WIND       PRES   REMARKS
MILWAUKEE      CLEAR     65  57  75 W5        29.98S
WAUKESHA       CLEAR     57  54  88 CALM      30.00S
MILWAUKEE/TIMM CLEAR     61  54  77 CALM      29.99S
RACINE         CLEAR     64  57  78 W5        30.00S
BURLINGTON     CLEAR     57  56  95 CALM      29.99S
KENOSHA        CLEAR     58  55  90 W5        29.99S
FOND DU LAC    CLEAR     59  57  93 SE3       29.97S
SHEBOYGAN      CLEAR     57  55  93 W3        29.97S
WEST BEND      CLEAR     59  55  88 CALM      29.99R
JUNEAU         CLEAR     59  57  95 SW3       29.99S
$$

LSZ147-162-301000-
LAKE SUPERIOR

STATION/POSITION TIME  TEMP    WIND        PRES    WAVE
                       AIR SEA DIR/SP/G            HT/PER
                 (UTC) (F)     (DEG/KT/KT) (MB)    (FT/S)
W MID LAKE BUOY  0850   43 38  260/ 10/ 10 1012.6R   1
DEVILS ISLAND    0900   51     240/ 16/ 17 1013.2S
PORT WING        0808   59     230/  8/ 12 1013.9R
SAXON HARBOR     0800   60     210/  8/ 10 1013.2R
$$

LMZ867-665-643>646-301000-
LAKE MICHIGAN

STATION/POSITION TIME  TEMP    WIND        PRES    WAVE
                       AIR SEA DIR/SP/G            HT/PER
                 (UTC) (F)     (DEG/KT/KT) (MB)    (FT/S)
CHAMBERS ISLAND  0800   61     210/  4/  6 1013.5S
N MID LAKE BUOY  0850   53 47  230/  8/ 10 1013.0R   1/ 4
NORTHPORT PIER   0800   63     260/  4/  7 1013.2S
KEWAUNEE LAKESHO 0800   62     310/  4/  5 1013.6R
SHEBOYGAN LAKESH 0900   63     260/  9/ 10 1014.7S
PORT WASHINGTON  0800   65     290/  6/  8 1015.6
S MID LAKE BUOY  0850   56 51  250/  6/  8 1014.8R   0
KENOSHA   LAKESH 0900   67     270/  8/ 10 1015.2R
$$

TC  - TEMPERATURE IN CELSIUS
VSB - VISIBILITY IN STATUTE MILES
WCI - WIND CHILL INDEX
HX  - HEAT INDEX




USA.gov is the U.S. government's official web portal to all federal, state and local government web resources and services.